Weather History for Del Bajio, Mexico

Change the Weather History Date:

Thursday, January 23, 2014

  Actual Average Record
Temperature  
Mean Temperature 62 °F -  
Max Temperature 80 °F 73 °F 84 °F (2008)
Min Temperature 44 °F 43 °F 37 °F (2000)
Degree Days  
Heating Degree Days 3    
Growing Degree Days 12 (Base 50)    
Moisture  
Dew Point 39 °F    
Average Humidity 47    
Maximum Humidity 71    
Minimum Humidity 21    
Precipitation  
Precipitation 0.00 in - - ()
Sea Level Pressure  
Sea Level Pressure 30.13 in    
Wind  
Wind Speed 3 mph ()    
Max Wind Speed 8 mph    
Max Gust Speed -    
Visibility 7.9 miles    
Events      
Averages and records for this station are not official NWS values.
T = Trace of Precipitation, MM = Missing Value Source: Averaged Metar Reports

Daily Weather History Graph

Daily Weather History Graph

Search for Another Location

Airport:

Trip Planner

Search our weather history database for the weather conditions in past years. The results will help you decide how hot, cold, wet, or windy it might be!

Date:

Astronomy

Jan. 23, 2014 Rise Set
Actual Time 7:24 AM CST 6:30 PM CST
Civil Twilight 7:01 AM CST 6:54 PM CST
Nautical Twilight 6:34 AM CST 7:21 PM CST
Astronomical Twilight 6:07 AM CST 7:47 PM CST
Moon 12:09 AM CST (1/23) 11:59 AM CST (1/23)
Length of Visible Light 11h 52m
Length of Day
11h 05m
Waning Gibbous, 55% of the Moon is Illuminated
Jan 23
Waning Gibbous
Jan 23
Last Quarter
Jan 30
New
Feb 6
First Quarter
Feb 14
Full

Hourly Weather History & Observations

Time (CST) Temp. Windchill Dew Point Humidity Pressure Visibility Wind Dir Wind Speed Gust Speed Precip Events Conditions
12:45 AM 48.2 °F - 33.8 °F 58% 30.18 in 8.0 mi Calm Calm - N/A   Clear
1:43 AM 48.2 °F - 33.8 °F 58% 30.17 in 8.0 mi NNE 5.8 mph - N/A   Clear
2:50 AM 46.4 °F 42.9 °F 33.8 °F 62% 29.90 in 8.0 mi NE 6.9 mph - N/A   Clear
4:48 AM 46.4 °F 42.9 °F 33.8 °F 62% 30.20 in 8.0 mi NNE 6.9 mph - N/A   Clear
5:50 AM 46.4 °F 42.9 °F 33.8 °F 62% 29.95 in 7.0 mi NE 6.9 mph - N/A   Clear
6:50 AM 44.6 °F - 33.8 °F 66% 30.23 in 7.0 mi Calm Calm - N/A   Clear
7:45 AM 44.6 °F - 35.6 °F 71% 30.24 in 6.0 mi Calm Calm - N/A   Clear
8:43 AM 53.6 °F - 39.2 °F 58% 30.04 in 7.0 mi Calm Calm - N/A   Partly Cloudy
9:51 AM 64.4 °F - 41.0 °F 42% 30.29 in 7.0 mi Calm Calm - N/A   Partly Cloudy
10:44 AM 69.8 °F - 42.8 °F 38% 30.32 in 7.0 mi Calm Calm - N/A   Partly Cloudy
11:43 AM 71.6 °F - 42.8 °F 35% 29.99 in 8.0 mi Calm Calm - N/A   Partly Cloudy
12:51 PM 78.8 °F - 39.2 °F 24% 30.24 in 8.0 mi SSW 5.8 mph - N/A   Scattered Clouds
1:41 PM 78.8 °F - 41.0 °F 26% 30.21 in 8.0 mi Calm Calm - N/A   Mostly Cloudy
2:44 PM 78.8 °F - 41.0 °F 26% 29.84 in 8.0 mi WSW 5.8 mph - N/A   Mostly Cloudy
3:44 PM 80.6 °F - 37.4 °F 21% 30.18 in 9.0 mi WNW 6.9 mph - N/A   Mostly Cloudy
4:42 PM 75.2 °F - 42.8 °F 31% 30.18 in 10.0 mi NNW 6.9 mph - N/A   Mostly Cloudy
5:46 PM 75.2 °F - 42.8 °F 31% 29.87 in 10.0 mi NNW 3.5 mph - N/A   Mostly Cloudy
6:55 PM 69.8 °F - 41.0 °F 35% 30.21 in 8.0 mi Calm Calm - N/A   Mostly Cloudy
7:55 PM 64.4 °F - 42.8 °F 45% 30.21 in 8.0 mi North 3.5 mph - N/A   Mostly Cloudy
8:43 PM 60.8 °F - 42.8 °F 52% 29.96 in 8.0 mi NE 4.6 mph - N/A   Mostly Cloudy
9:45 PM 59.0 °F - 42.8 °F 55% 30.27 in 8.0 mi Calm Calm - N/A   Scattered Clouds
10:55 PM 53.6 °F - 42.8 °F 67% 30.27 in 8.0 mi NNW 5.8 mph - N/A   Scattered Clouds
11:46 PM 57.2 °F - 41.0 °F 55% 29.95 in 8.0 mi NE 8.1 mph - N/A   Clear